{"data":{"norad_id":60276,"intl_designator":"2024-131X","name":"STARLINK-32154","alt_names":[],"object_type":"PAYLOAD","status":"ACTIVE","operator":null,"country":"US","launch_date":"2024-07-27","launch_site_code":"AFETR","launch_vehicle":null,"mission":null,"orbit_class":"UNKNOWN","rcs_meters":null,"size_class":null,"mass_kg":null,"dimensions":null,"purposes":["comms"],"wikipedia_slug":null,"has_3d_model":false,"image_url":null,"decayed_at":null,"tle_current":{"epoch":"2026-05-25T04:17:45.396096Z","epoch_age_seconds":62858,"freshness":"FRESH","line1":"1 60276U 24131X   26145.17899764  .00000554  00000+0  30845-4 0  9998","line2":"2 60276  53.1602  56.8433 0001068  82.5599 277.5523 15.30196196103435","mean_motion":15.30196196,"eccentricity":0.0001068,"inclination_deg":53.1602,"raan_deg":56.8433,"arg_perigee_deg":82.5599,"mean_anomaly_deg":277.5523,"bstar":3.0845e-5,"rev_number":10343,"period_min":94.105579648167,"perigee_km":474.49448828712,"apogee_km":475.95836671523,"semimajor_km":6853.3634275012,"source":"CELESTRAK","updated_at":"2026-05-25T13:38:19.203003Z"}}}